This is the latest recevied weather packets stored in our database for station/object DC1MPP-9. If no packets are shown the sender has not sent any weather packets the latest 10 day(s).
| Time | Temp. | Humidity | Pressure | Rain* | Wind** | Luminosity | Snow |
|---|---|---|---|---|---|---|---|
| 1777979314 | 26.11° C | 36% | 949 hPa | - | - | - | - |
| 1777979073 | 26.11° C | 37% | 949 hPa | - | - | - | - |
| 1777978832 | 26.11° C | 36% | 949 hPa | - | - | - | - |
| 1777978591 | 25.56° C | 40% | 949 hPa | - | - | - | - |
| 1777978350 | 25.56° C | 39% | 950 hPa | - | - | - | - |
| 1777978109 | 25° C | 39% | 950 hPa | - | - | - | - |
| 1777977868 | 25° C | 40% | 950 hPa | - | - | - | - |
| 1777977627 | 25° C | 39% | 950 hPa | - | - | - | - |
| 1777977386 | 23.89° C | 40% | 950 hPa | - | - | - | - |
| 1777977145 | 24.44° C | 41% | 950 hPa | - | - | - | - |
| 1777976904 | 24.44° C | 41% | 950 hPa | - | - | - | - |
| 1777976662 | 25° C | 39% | 950 hPa | - | - | - | - |
| 1777976421 | 25.56° C | 39% | 950 hPa | - | - | - | - |
| 1777976180 | 25° C | 40% | 950 hPa | - | - | - | - |
| 1777975939 | 25.56° C | 42% | 950 hPa | - | - | - | - |
| 1777975698 | 26.11° C | 35% | 950 hPa | - | - | - | - |
| 1777975457 | 26.11° C | 37% | 950 hPa | - | - | - | - |
| 1777975217 | 26.11° C | 36% | 950 hPa | - | - | - | - |
| 1777975216 | 26.11° C | 36% | 950 hPa | - | - | - | - |
| 1777974975 | 26.11° C | 39% | 950 hPa | - | - | - | - |
| 1777974734 | 26.11° C | 38% | 950 hPa | - | - | - | - |
| 1777974493 | 26.11° C | 42% | 950 hPa | - | - | - | - |
| 1777974252 | 25° C | 42% | 950 hPa | - | - | - | - |
| 1777974011 | 25° C | 41% | 950 hPa | - | - | - | - |
| 1777973770 | 25.56° C | 40% | 951 hPa | - | - | - | - |
* Rain since midnight (hover to see other rain measurements)
** Current wind speed in m/s (hover to see current wind gust speed)